Home   Weather   Kingston   Past weeks

Flag for Canada Past Weather in Kingston, Ontario, Canada — Yesterday and Last 2 Weeks

Now
37 °F

Broken clouds.


Feels Like: 29 °F
Forecast: 35 / 39 °F
Wind: 13 mph from Northeast

Location: Kingston

Current Time: Jan 22, 2017 at 9:21:14 am

Latest Report: Jan 22, 2017 at 9:00 am


Visibility: 15 mi

Pressure: 29.75 "Hg

Humidity: 93%

Dew Point: 36 °F

Location of KingstonLocation

Past Weather in Kingston — Graph

°F

Kingston Temperature Yesterday

Maximum temperature yesterday: 39 °F (at 6:00 am)
Minimum temperature yesterday: 36 °F (at 9:22 am)
Average temperature yesterday: 37 °F

High & Low Weather Summary for the Past Weeks

 TemperatureHumidityPressure
High45 °F (Jan 12, 7:00 am)100% (Jan 12, 10:00 am)30.81 "Hg (Jan 12, 10:00 am)
Low3 °F (Jan 8, 8:00 am)39% (Jan 13, 2:00 pm)29.70 "Hg (Jan 12, 6:00 am)
Average29 °F82%30.14 "Hg
* Reported Jan 7 8:00 am — Jan 22 8:00 am, Kingston, Weather by CustomWeather, © 2017

Note: Actual official high and low records may vary slightly from our data, if they occured in-between our weather recording intervals... More about our weather records

Advertising

Kingston Weather History for the Previous 24 Hours

Scroll right to see more
 ConditionsComfort  
Time TempWeatherWind HumidityBarometerVisibility
8:00 am
Sun, Jan 22
37 °FBroken clouds.13 mph93%29.75 "Hg15 mi
7:00 am37 °FPassing clouds.12 mph93%29.75 "Hg15 mi
6:00 am37 °FMostly cloudy.13 mph93%29.73 "Hg15 mi
11:00 pm
Sat, Jan 21
36 °FFog.12 mph100%29.75 "Hg1 mi
10:35 pm37 °FFog.9 mph93%29.75 "Hg3 mi
10:00 pm36 °FFog.10 mph100%29.77 "Hg1 mi
9:36 pm37 °FFog.7 mph93%29.78 "Hg1 mi
9:21 pm37 °FFog.7 mph93%29.78 "Hg1 mi
9:00 pm37 °FFog.3 mph93%29.78 "Hg1 mi
8:00 pm37 °FFog.6 mph93%29.77 "Hg0 mi
7:00 pm37 °FFog.3 mph93%29.77 "Hg1 mi
6:00 pm36 °FFog.2 mph100%29.78 "Hg1 mi
5:35 pm36 °FFog.3 mph100%29.78 "Hg1 mi
5:09 pm37 °FFog.6 mph93%29.78 "Hg1 mi
5:00 pm37 °FFog.6 mph93%29.78 "Hg1 mi
4:00 pm39 °FFog.2 mph93%29.78 "Hg4 mi
3:00 pm37 °FFog.5 mph100%29.78 "Hg2 mi
2:23 pm37 °FFog.6 mph100%29.78 "Hg1 mi
1:50 pm37 °FFog.6 mph100%29.77 "Hg1 mi
1:40 pm37 °FFog.2 mph100%29.77 "Hg1 mi
1:00 pm37 °FFog.6 mph93%29.78 "Hg0 mi
12:22 pm37 °FFog.5 mph93%29.77 "Hg0 mi
12:00 pm37 °FFog.5 mph93%29.79 "Hg1 mi
11:00 am37 °FFog.6 mph100%29.81 "Hg1 mi
10:00 am37 °FFog.8 mph93%29.81 "Hg1 mi
9:22 am36 °FFog.6 mph100%29.80 "Hg1 mi
9:00 am37 °FFog.8 mph93%29.81 "Hg1 mi
Weather by CustomWeather, © 2017

See weather overviewHow to use our weather pages